Wind_Speed
95 96 97 98 100 101 102 103 104 106 109 109 111 113 114 112 112 111 111 110 108 107 105 103 104 104 106 110 113 116 119 123 116 111 110 112 116 121 124 128 129 131 131
97 98 100 101 102 104 105 107 110 111 112 112 113 112 112 112 112 110 108 106 104 102 101 103 104 107 110 115 116 119 122 119 115 114 115 120 125 129 131 133 134 130 126
101 103 105 107 108 110 112 111 111 112 113 113 110 107 105 107 108 107 103 102 102 101 104 105 107 110 113 117 119 124 121 115 116 119 123 128 132 133 134 134 129 122 116
109 110 112 113 114 114 113 113 114 114 111 107 102 100 100 102 103 100 103 101 101 105 105 106 109 113 118 118 123 121 117 116 120 125 129 132 134 134 130 122 119 114 107
115 116 116 117 116 116 116 117 117 112 106 102 98 95 95 95 96 98 102 103 104 104 104 111 115 114 117 121 117 115 119 122 127 130 132 133 132 126 119 114 104 99 100
120 120 120 120 121 121 120 116 112 107 102 99 96 94 93 93 95 96 97 99 103 106 108 109 112 115 116 116 120 121 125 128 130 132 132 130 122 118 108 101 96 93 93
124 124 124 124 123 122 119 113 109 104 98 94 92 92 92 91 92 94 95 97 100 103 106 109 112 115 116 120 123 125 128 130 131 130 126 119 114 103 97 93 92 92 90
130 129 128 127 124 119 116 113 107 103 99 96 92 90 90 91 94 94 96 99 102 105 110 114 117 119 120 123 126 127 128 127 126 122 116 107 98 94 93 93 92 92 91
134 133 133 128 126 122 119 113 109 106 99 98 95 96 96 97 98 100 102 105 107 111 115 116 118 121 122 124 125 124 122 121 117 112 100 96 93 92 93 92 91 88 86
136 136 134 133 130 128 123 116 111 106 104 103 101 101 100 102 104 105 107 110 112 115 117 119 120 122 123 121 120 118 116 112 106 94 91 92 91 90 90 89 86 83 78
139 138 137 135 132 128 123 116 114 109 108 108 107 106 104 104 106 107 110 114 116 118 118 118 118 117 115 115 114 111 107 99 91 89 90 90 89 89 88 86 83 79 74
142 141 137 133 123 122 118 115 114 110 108 108 106 107 108 110 111 110 112 112 112 112 111 111 110 110 111 109 105 101 90 87 86 85 86 87 87 87 86 84 81 77 74
132 128 128 123 115 115 112 102 96 93 95 94 94 93 96 98 100 102 103 103 101 101 102 104 105 103 100 97 89 83 82 82 80 81 82 83 83 84 85 83 81 78 73
125 120 118 120 114 103 94 92 89 89 90 87 88 87 89 90 92 93 94 95 95 95 95 94 92 90 86 78 77 77 78 77 77 78 80 82 82 84 85 82 81 77 73
125 120 118 108 100 92 85 83 81 80 80 79 80 80 80 81 81 81 82 83 83 82 82 82 79 71 70 71 73 73 74 74 75 77 80 82 83 84 83 80 78 75 68
123 117 108 99 88 80 76 72 70 68 66 66 66 66 68 70 71 72 72 71 70 71 70 67 63 64 66 66 67 69 71 72 74 76 79 81 82 83 82 79 76 72 67
108 94 82 78 71 67 64 62 59 57 54 53 53 54 55 58 59 59 57 57 57 55 55 57 60 61 60 62 65 67 70 71 72 75 78 80 81 82 80 77 75 71 66
79 73 66 62 58 55 52 50 47 45 43 42 42 41 41 41 43 44 45 45 46 48 52 55 55 57 60 62 65 68 71 72 74 76 78 80 81 81 78 74 71 68 65
61 56 53 49 45 41 38 35 32 30 30 30 31 31 31 33 34 36 39 42 45 48 49 51 56 59 60 64 66 69 72 74 74 75 77 80 81 80 77 74 70 66 62
48 44 41 36 33 30 28 27 25 24 24 25 25 26 28 31 33 35 38 40 42 44 48 53 57 60 62 66 68 70 72 75 75 74 76 78 79 78 76 71 67 64 60
35 33 31 29 27 25 24 23 23 24 25 26 27 28 30 32 32 33 37 40 42 46 49 53 57 60 64 66 67 69 71 73 74 74 76 77 77 76 73 68 65 61 59
27 26 26 27 27 27 26 26 25 25 26 27 28 29 28 28 31 35 39 41 43 46 49 53 56 59 62 65 67 69 71 72 72 73 75 76 76 74 70 66 63 59 57
26 27 28 28 27 26 26 26 26 25 25 26 26 24 25 28 32 34 37 39 42 46 50 54 56 59 62 65 67 69 70 71 72 73 75 76 75 72 68 64 61 58 54
24 24 26 27 27 26 25 24 24 24 21 21 21 23 25 27 30 35 38 41 45 48 52 55 59 61 64 66 68 69 70 71 72 74 75 75 74 71 67 63 59 56 53
23 23 24 24 23 22 21 20 18 17 17 19 19 22 25 29 33 37 42 46 49 51 55 57 61 64 65 67 69 70 71 71 73 75 76 76 73 70 66 63 59 55 52
20 19 18 17 16 15 14 14 14 14 16 19 22 25 29 33 37 41 46 50 54 55 59 61 64 67 68 68 70 70 70 72 74 75 76 75 72 68 65 62 59 55 51
Wind_Direction
280 281 282 283 284 285 286 288 289 290 291 292 292 292 292 292 291 292 292 292 293 293 292 294 295 295 295 294 296 298 300 301 303 303 302 302 301 301 301 300 300 299 299
281 281 282 283 284 285 287 289 290 291 292 294 294 293 292 291 290 291 290 289 289 290 291 292 293 293 293 295 297 298 300 300 301 303 303 302 302 301 301 301 301 299 298
281 282 284 285 286 287 289 290 291 292 293 294 293 292 292 291 290 288 289 289 289 290 291 292 291 292 294 295 296 298 299 299 301 301 302 302 302 302 302 300 300 300 299
282 283 285 286 287 288 288 290 293 294 293 292 292 291 292 291 291 290 290 289 288 290 292 291 291 292 292 294 297 298 299 300 300 301 301 303 303 302 302 301 301 300 299
282 283 285 286 287 289 290 292 294 294 293 292 291 293 293 293 292 292 290 289 289 290 290 289 290 293 294 295 298 300 300 301 301 302 303 302 303 303 302 301 300 299 299
283 285 286 288 289 290 292 293 293 294 293 292 292 292 293 294 293 292 292 290 288 289 291 292 292 293 295 297 300 301 301 302 303 302 304 304 303 303 304 302 300 299 299
284 285 287 289 289 291 292 292 293 292 292 292 293 293 293 292 292 291 290 291 291 291 293 293 293 294 296 299 300 301 302 302 304 304 305 305 304 303 302 302 302 301 300
286 288 288 289 289 290 292 293 294 292 291 290 288 289 289 290 291 291 291 291 291 291 292 293 294 296 297 298 301 301 302 304 304 304 304 305 304 304 305 304 303 303 302
287 288 289 290 291 292 292 293 292 292 293 293 292 290 290 291 291 291 291 291 291 290 290 293 296 296 299 299 301 301 302 303 304 305 304 305 305 306 305 305 304 304 304
288 288 290 290 290 291 292 294 294 295 294 292 291 290 289 290 290 290 289 289 289 290 291 293 296 297 297 300 301 302 303 304 304 304 305 306 305 305 305 305 306 306 306
285 287 287 289 291 292 292 294 295 293 291 289 288 287 287 286 285 285 285 286 287 289 291 293 295 297 298 300 301 303 303 305 305 306 306 305 306 307 308 308 309 308 307
285 288 290 292 293 297 299 297 295 291 289 287 285 283 284 283 283 284 283 284 286 288 290 292 295 296 299 300 301 303 304 305 307 305 305 305 307 309 311 313 313 311 311
289 291 295 297 298 298 295 294 292 286 285 283 283 281 281 282 281 282 283 285 287 288 290 293 295 296 299 301 302 303 305 306 305 305 307 308 310 313 315 317 316 314 313
293 294 298 300 300 299 297 291 289 286 283 281 280 280 278 279 280 280 282 284 286 288 291 293 295 298 300 301 304 305 305 304 305 307 309 312 314 316 318 318 317 316 315
294 297 300 301 300 296 292 290 287 285 282 280 277 275 275 277 279 280 282 284 287 290 293 295 298 299 302 305 304 304 305 306 308 310 312 315 317 318 319 319 317 317 316
296 296 298 298 296 294 292 290 288 286 285 281 279 277 276 278 279 281 284 288 290 292 295 298 301 304 305 304 304 306 308 310 312 313 315 317 318 319 321 320 319 318 318
294 293 293 294 293 293 292 291 289 287 286 284 281 279 278 278 281 285 289 291 293 296 299 302 303 303 304 306 308 310 313 313 315 315 317 318 320 322 322 322 320 319 318
292 293 294 294 294 293 293 292 290 288 286 285 285 285 286 288 289 290 292 295 299 301 302 302 303 306 309 312 314 315 314 315 317 318 319 320 322 323 324 323 321 320 320
293 293 294 296 296 295 294 293 294 295 296 296 296 296 294 293 296 298 300 302 303 304 304 307 310 313 316 317 317 317 317 317 319 320 321 322 323 325 325 324 322 322 321
292 295 298 301 302 303 306 308 308 308 307 304 303 301 302 303 302 301 303 305 306 308 310 313 315 318 319 318 318 319 318 319 321 322 322 323 324 326 326 325 324 323 322
298 301 303 306 308 309 313 315 315 314 312 310 310 308 305 302 305 308 308 309 312 315 318 318 319 320 319 318 320 320 320 321 322 323 324 325 326 326 326 325 325 325 324
301 304 308 309 310 312 313 313 313 311 309 307 306 304 305 309 313 313 313 317 321 322 320 319 321 321 320 321 321 322 322 323 323 324 326 326 327 327 327 326 326 326 325
304 305 306 305 306 307 309 307 304 304 304 305 301 307 315 317 316 319 323 325 325 324 323 324 324 324 324 325 324 323 323 324 325 326 327 328 327 328 329 328 328 327 325
301 302 303 303 302 301 301 301 302 301 304 301 310 319 322 324 325 326 327 328 329 330 330 329 329 328 327 326 325 324 325 325 325 327 328 328 329 331 330 330 329 328 327
303 303 303 301 299 299 299 300 300 302 305 316 324 326 328 330 329 329 330 334 334 335 333 332 331 328 327 326 325 326 325 325 326 328 329 330 331 331 330 331 330 329 328
302 303 303 305 305 306 304 301 304 312 319 325 326 326 328 329 330 330 331 334 335 338 338 335 333 330 328 326 326 326 326 326 327 328 330 331 331 332 331 331 330 329 329
Height
10604 10600 10596 10592 10588 10583 10579 10574 10569 10563 10557 10551 10544 10537 10531 10524 10517 10509 10500 10492 10484 10477 10468 10461 10453 10444 10434 10423 10412 10400 10388 10373 10358 10345 10333 10323 10312 10300 10287 10276 10264 10249 10236
10582 10577 10574 10571 10566 10562 10558 10553 10547 10541 10534 10527 10519 10512 10505 10498 10490 10482 10474 10466 10459 10452 10444 10437 10429 10420 10410 10400 10388 10374 10363 10350 10336 10322 10308 10294 10282 10270 10255 10239 10227 10213 10201
10559 10556 10552 10548 10543 10539 10534 10528 10522 10516 10509 10501 10493 10485 10478 10472 10464 10456 10448 10441 10434 10428 10420 10413 10403 10394 10384 10372 10360 10348 10336 10324 10311 10297 10282 10267 10251 10236 10221 10204 10189 10172 10162
10536 10532 10528 10523 10518 10514 10509 10504 10498 10491 10483 10475 10468 10461 10454 10447 10439 10430 10423 10417 10410 10403 10396 10388 10377 10367 10356 10345 10333 10320 10308 10297 10283 10269 10254 10238 10220 10204 10188 10173 10154 10138 10126
10510 10506 10502 10498 10493 10487 10483 10479 10472 10464 10457 10450 10443 10438 10430 10422 10414 10407 10400 10393 10386 10378 10370 10359 10349 10339 10328 10317 10304 10292 10279 10266 10252 10237 10221 10205 10187 10169 10154 10140 10126 10115 10096
10484 10481 10476 10471 10466 10461 10457 10451 10444 10437 10431 10426 10419 10413 10406 10397 10389 10383 10376 10368 10360 10351 10342 10333 10321 10311 10299 10288 10277 10264 10250 10235 10221 10204 10187 10170 10154 10137 10120 10109 10097 10085 10073
10457 10453 10448 10444 10438 10433 10429 10423 10419 10413 10407 10401 10395 10390 10383 10374 10366 10358 10352 10344 10335 10325 10315 10305 10293 10283 10273 10262 10250 10236 10221 10205 10188 10172 10156 10138 10124 10108 10095 10082 10069 10058 10047
10426 10422 10415 10409 10405 10403 10400 10397 10394 10388 10383 10376 10371 10365 10357 10350 10341 10334 10325 10317 10308 10297 10287 10276 10266 10256 10246 10234 10221 10207 10192 10175 10159 10144 10127 10112 10098 10084 10069 10057 10046 10032 10016
10393 10386 10380 10378 10374 10372 10366 10367 10363 10358 10356 10348 10344 10337 10329 10323 10316 10308 10298 10289 10281 10269 10259 10250 10241 10227 10218 10206 10194 10179 10165 10149 10133 10117 10101 10087 10074 10062 10048 10034 10021 10009 9996
10356 10351 10350 10346 10343 10339 10335 10336 10333 10332 10326 10319 10314 10307 10301 10293 10288 10281 10271 10261 10252 10242 10231 10222 10215 10202 10189 10179 10166 10152 10138 10123 10109 10094 10079 10065 10052 10040 10026 10012 9999 9985 9974
10322 10321 10316 10313 10311 10308 10306 10304 10303 10301 10295 10289 10283 10276 10270 10264 10258 10252 10242 10233 10225 10216 10209 10198 10187 10176 10165 10153 10140 10127 10113 10099 10083 10070 10056 10042 10028 10015 10001 9988 9976 9963 9952
10292 10288 10285 10283 10281 10277 10272 10267 10262 10258 10255 10250 10247 10242 10237 10231 10226 10221 10212 10205 10199 10192 10183 10173 10164 10153 10142 10130 10117 10104 10090 10076 10063 10049 10036 10021 10007 9992 9978 9964 9951 9938 9927
10269 10262 10258 10251 10249 10246 10237 10231 10225 10219 10214 10211 10208 10205 10202 10198 10194 10190 10184 10179 10175 10167 10159 10151 10142 10132 10122 10109 10096 10082 10070 10057 10044 10031 10017 10003 9988 9972 9957 9941 9927 9915 9905
10243 10236 10229 10220 10212 10205 10198 10193 10187 10184 10181 10178 10177 10175 10171 10170 10167 10164 10161 10156 10151 10145 10138 10130 10121 10112 10101 10090 10077 10064 10052 10039 10027 10013 9999 9984 9968 9955 9940 9925 9909 9895 9883
10214 10208 10200 10190 10181 10174 10167 10162 10158 10154 10151 10149 10146 10146 10145 10144 10143 10142 10139 10136 10131 10125 10117 10109 10102 10092 10082 10072 10060 10048 10036 10023 10010 9995 9980 9965 9951 9938 9924 9909 9893 9878 9871
10190 10181 10173 10165 10157 10150 10144 10139 10134 10129 10126 10124 10124 10124 10123 10123 10122 10121 10120 10117 10110 10105 10099 10092 10084 10075 10066 10056 10044 10032 10020 10007 9993 9978 9964 9950 9935 9920 9906 9891 9875 9862 9852
10164 10157 10151 10144 10137 10130 10125 10119 10115 10112 10109 10107 10106 10107 10107 10106 10106 10104 10102 10098 10093 10089 10083 10075 10069 10062 10052 10041 10030 10018 10004 9992 9980 9965 9950 9935 9921 9906 9890 9875 9859 9846 9835
10142 10136 10129 10125 10120 10114 10110 10106 10102 10099 10097 10095 10094 10094 10094 10093 10092 10090 10088 10084 10081 10077 10071 10064 10056 10047 10038 10026 10015 10002 9988 9976 9965 9949 9934 9918 9904 9890 9875 9861 9846 9831 9820
10124 10120 10115 10111 10106 10102 10099 10095 10091 10088 10086 10085 10085 10084 10083 10082 10081 10079 10076 10072 10069 10064 10058 10050 10041 10032 10022 10011 10000 9987 9972 9959 9948 9934 9919 9904 9888 9874 9859 9845 9831 9819 9808
10110 10106 10102 10098 10095 10092 10088 10085 10082 10080 10079 10078 10077 10076 10074 10073 10072 10070 10066 10063 10060 10054 10047 10039 10029 10019 10008 9996 9984 9972 9957 9943 9932 9920 9906 9891 9876 9861 9846 9832 9819 9806 9795
10098 10095 10092 10088 10086 10083 10080 10078 10076 10074 10073 10071 10070 10069 10067 10065 10063 10059 10057 10054 10049 10043 10035 10027 10017 10006 9994 9982 9970 9957 9943 9929 9917 9906 9893 9878 9864 9849 9835 9820 9807 9795 9783
10090 10087 10084 10081 10078 10076 10073 10071 10070 10068 10067 10065 10064 10062 10061 10057 10055 10052 10048 10043 10038 10031 10024 10016 10006 9994 9981 9969 9956 9943 9930 9917 9905 9893 9880 9866 9851 9838 9824 9810 9796 9784 9773
10083 10080 10077 10074 10072 10069 10067 10065 10064 10063 10061 10060 10058 10056 10054 10052 10049 10044 10039 10034 10029 10021 10012 10002 9992 9980 9968 9956 9942 9930 9918 9906 9893 9881 9868 9854 9839 9826 9813 9800 9787 9774 9763
10076 10073 10071 10068 10065 10063 10061 10059 10058 10057 10056 10055 10052 10050 10048 10046 10042 10037 10031 10026 10018 10010 9999 9988 9977 9966 9955 9943 9930 9918 9906 9893 9880 9868 9855 9841 9826 9813 9800 9789 9777 9765 9754
10070 10068 10065 10063 10060 10058 10056 10054 10053 10052 10051 10048 10046 10044 10042 10038 10034 10028 10022 10014 10007 9998 9988 9976 9964 9953 9942 9931 9919 9906 9894 9881 9868 9855 9841 9827 9814 9801 9789 9777 9766 9756 9745
10064 10062 10059 10057 10055 10053 10051 10050 10049 10047 10046 10043 10040 10037 10033 10029 10024 10018 10010 10003 9995 9986 9977 9965 9952 9941 9930 9918 9906 9894 9882 9869 9856 9843 9829 9815 9802 9789 9777 9766 9755 9745 9736